This is the latest recevied weather packets stored in our database for station/object SQ9SMC-13. If no packets are shown the sender has not sent any weather packets the latest 10 day(s).
| Time | Temp. | Humidity | Pressure | Rain* | Wind** | Luminosity | Snow |
|---|---|---|---|---|---|---|---|
| 1777446303 | 6.11° C | 46% | 1028.3 hPa | 0 mm | - | 204 W/m² | - |
| 1777446003 | 5° C | 48% | 1028.3 hPa | 0 mm | - | 197 W/m² | - |
| 1777445703 | 5° C | 50% | 1028.2 hPa | 0 mm | - | 175 W/m² | - |
| 1777444803 | 4.44° C | 55% | 1028.2 hPa | 0 mm | - | 165 W/m² | - |
| 1777444504 | 4.44° C | 59% | 1028 hPa | 0 mm | - | 160 W/m² | - |
| 1777444203 | 4.44° C | 57% | 1028 hPa | 0 mm | - | 162 W/m² | - |
| 1777443903 | 3.89° C | 57% | 1028 hPa | 0 mm | - | 138 W/m² | - |
| 1777443604 | 3.89° C | 58% | 1028 hPa | 0 mm | - | 130 W/m² | - |
| 1777443304 | 5° C | 58% | 1028 hPa | 0 mm | - | 110 W/m² | - |
| 1777443004 | 5° C | 57% | 1028 hPa | 0 mm | - | 239 W/m² | - |
| 1777442702 | 4.44° C | 60% | 1027.9 hPa | 0 mm | - | 227 W/m² | - |
| 1777442403 | 3.33° C | 62% | 1027.7 hPa | 0 mm | - | 218 W/m² | - |
| 1777442103 | 3.33° C | 63% | 1027.8 hPa | 0 mm | - | 151 W/m² | - |
| 1777441803 | 3.89° C | 62% | 1027.6 hPa | 0 mm | - | 83 W/m² | - |
| 1777441504 | 4.44° C | 61% | 1027.6 hPa | 0 mm | - | 164 W/m² | - |
| 1777441204 | 4.44° C | 62% | 1027.7 hPa | 0 mm | - | 164 W/m² | - |
| 1777440906 | 3.89° C | 64% | 1027.5 hPa | 0 mm | - | 125 W/m² | - |
| 1777440605 | 3.33° C | 66% | 1027.7 hPa | 0 mm | - | 77 W/m² | - |
| 1777440303 | 3.33° C | 67% | 1027.6 hPa | 0 mm | - | 143 W/m² | - |
| 1777440003 | 2.78° C | 69% | 1027.4 hPa | 0 mm | - | 93 W/m² | - |
| 1777439706 | 2.22° C | 73% | 1027.4 hPa | 0 mm | - | 137 W/m² | - |
| 1777439405 | 1.67° C | 76% | 1027.3 hPa | 0 mm | - | 84 W/m² | - |
| 1777439102 | 1.11° C | 76% | 1027.2 hPa | 0 mm | - | 70 W/m² | - |
| 1777438804 | 0.56° C | 77% | 1027.2 hPa | 0 mm | - | 65 W/m² | - |
| 1777438507 | 0.56° C | 77% | 1027.2 hPa | 0 mm | - | 52 W/m² | - |
* Rain latest hour (hover to see other rain measurements)
** Current wind speed in m/s (hover to see current wind gust speed)